Location: Flotzheim
(48.8375°N, 10.8136°E)
Time: 04:05:52
(UTC+00:00)

Cosmos 1726 Rocket - Pass Details

Date: 23 January 2021
Orbit: 604 x 628 km, 82.5° (Epoch: 26 February)

Event Time Altitude Azimuth Distance (km) Brightness Sun altitude
Rises 16:48:13 0° 349° (N) 2,886 6.9 -8.0°
Reaches altitude 10° 16:50:26 10° 349° (N) 1,981 6.1 -8.4°
Maximum altitude 16:54:50 85° 262° (W) 625 3.6 -9.0°
Drops below altitude 10° 16:59:13 10° 174° (S) 1,980 6.3 -9.7°
Sets 17:01:26 0° 174° (S) 2,885 7.1 -10.1°
